Home > Weather > Innsbruck > Past weeks

Flag for Austria Weather for the Past 2 Weeks in Innsbruck, Tyrol, Austria

Now
72 °F

Passing clouds.


Feels Like: 76 °F
Forecast: 42 / 70 °F
Wind: N/A

Location: Innsbruck-Flughafen

Current Time: May 6, 2016 at 4:05:05 PM

Latest Report: May 6, 2016 at 3:00 PM


Visibility: 10 mi

Pressure: 29.88 "Hg (27.98 "Hg at 570m altitude)

Humidity: 29%

Dew Point: 38 °F

Location of InnsbruckLocation

Historic Weather in Innsbruck — Graph

°F

Innsbruck Temperature Yesterday

Maximum temperature yesterday: 66 °F (at 6:00 PM)
Minimum temperature yesterday: 36 °F (at 6:00 AM)
Average temperature yesterday: 50 °F

High & Low Weather Summary for the Past Weeks

 TemperatureHumidityPressure
High75 °F (Apr 21, 4:00 PM)97% (May 2, 7:00 AM)30.37 "Hg (May 2, 7:00 AM)
Low29 °F (Apr 28, 7:00 AM)20% (Apr 30, 6:00 PM)29.54 "Hg (Apr 26, 3:00 PM)
Average49 °F67%29.98 "Hg
* Reported Apr 21 3:00 PM — May 6 3:00 PM, Innsbruck, Weather by CustomWeather, © 2016

Note: Actual official high and low records may vary slightly from our data, if they occured in-between our weather recording intervals... More about our weather records

Advertising

Innsbruck Weather History for the Previous 24 Hours

Scroll right to see more
 ConditionsComfort  
Time TempWeatherWind HumidityBarometerVisibility
3:00 PM
Fri, May 6
72 °FPassing clouds.N/A29%29.88 "Hg10 mi
2:00 PM70 °FPassing clouds.N/A31%29.92 "Hg11 mi
1:00 PM69 °FPassing clouds.N/A29%29.95 "Hg10 mi
12:00 PM66 °FPassing clouds.N/A33%29.98 "Hg11 mi
11:00 AM62 °FPassing clouds.3 mph44%30.02 "Hg7 mi
10:00 AM57 °FPassing clouds.5 mph53%30.06 "Hg19 mi
9:00 AM51 °FPassing clouds.5 mph63%30.11 "Hg19 mi
8:00 AM46 °FPassing clouds.6 mph77%30.14 "Hg16 mi
7:00 AM42 °FPassing clouds.N/A82%30.16 "Hg9 mi
6:00 AM41 °FSunny.3 mph85%30.16 "Hg19 mi
5:00 AM42 °FQuite cool.N/A85%30.15 "Hg14 mi
4:00 AM42 °FQuite cool.5 mph85%30.15 "Hg19 mi
3:00 AM43 °FQuite cool.N/A82%30.16 "Hg7 mi
2:00 AM44 °FQuite cool.N/A76%30.16 "Hg16 mi
1:00 AM46 °FCool.N/A72%30.16 "Hg25 mi
12:00 AM51 °FCool.N/A64%30.13 "Hg28 mi
11:00 PM
Thu, May 5
52 °FClear.N/A70%30.13 "Hg19 mi
10:00 PM55 °FClear.3 mph65%30.11 "Hg31 mi
9:00 PM58 °FClear.6 mph60%30.08 "Hg22 mi
8:00 PM60 °FPassing clouds.6 mph55%30.06 "Hg31 mi
7:00 PM64 °FPassing clouds.6 mph44%30.03 "Hg22 mi
6:00 PM66 °FPassing clouds.5 mph39%30.04 "Hg18 mi
5:00 PM65 °FPassing clouds.7 mph36%30.04 "Hg19 mi
4:00 PM65 °FPassing clouds.5 mph38%30.06 "Hg13 mi
Weather by CustomWeather, © 2016

See weather overviewHow to use our weather pages